Other Public Products
Issued by NWS Grand Forks, ND

Home | Current Version | Previous Version | Graphics & Text | Print | Product List | Glossary On
Versions: 1 2 3 4 5 6 7 8 9 10 11 12 13 14 15 16 17 18 19 20 21 22 23 24 25 26 27 28 29 30 31 32 33 34 35 36 37 38 39 40 41 42 43 44 45 46 47 48 49 50
746
FPUS83 KFGF 290310
OPUFGF
PRAIRIE TO PINES WEATHER ROUNDUP
NATIONAL WEATHER SERVICE EASTERN NORTH DAKOTA/GRAND FORKS ND
1000 PM CDT TUE MAR 28 2017

 **SATELLITE DATA USED TO AUGMENT SKY COVER AT AUTOMATED STATIONS**
 *****  WEATHER ACROSS EASTERN NORTH DAKOTA  *****

CITY           SKY/WX    TMP DP  RH WIND       PRES   REMARKS
GRAND FORKS    MOCLDY    39  38  96 NW5       30.21S
GRAND FORKS AF FAIR      37  37 100 N6        30.22S
GRAND CITY NWS NOT AVBL
BUXTON         NOT AVBL
DEVILS LAKE    FAIR      38  36  92 SE7       30.19R
FARGO          FAIR      45  39  79 N6        30.20R
WAHPETON ARPT  FAIR      45  36  70 N5        30.20S
$$

 *****  WEATHER ACROSS CENTRAL AND WESTERN NORTH DAKOTA  *****

CITY           SKY/WX    TMP DP  RH WIND       PRES   REMARKS
JAMESTOWN      FAIR      42  37  82 E7        30.18S
BISMARCK       FAIR      47  38  71 SE8       30.15R
MINOT          MOCLDY    48  40  73 E9        30.11R
MINOT AFB      CLOUDY    42  40  92 NW12      30.12R
GARRISON         N/A     41  37  86 SE8       30.10R
WILLISTON      FAIR      37  36  96 W3        30.10R FOG
DICKINSON      CLOUDY    41  39  93 CALM      30.10S
HETTINGER      MOCLDY    44  39  82 SE10      30.13R
$$

 *****  OTHER OBSERVATIONS NORTHEAST NORTH DAKOTA  *****

CITY           SKY/WX    TMP DP  RH WIND       PRES   REMARKS
WALHALLA       NOT AVBL
LANGDON        MOCLDY    36  36 100 E7        30.21R
CAVALIER       FAIR      36  34  93 NW5       30.22S
GRAFTON        FAIR      36  36 100 N3        30.24S
CANDO          NOT AVBL
FORT TOTTEN      N/A     43  43  99 SE9       29.95S
ROLLA          CLOUDY    36  36 100 SE8       30.19R
RUGBY          NOT AVBL
 ***** THE ABOVE OBSERVATIONS ARE NON NWS ARE NOT QUALITY
        CONTROLLED AND MAY MIS-REPORT RAIN FOR SNOW...
$$

 *****  OTHER OBSERVATIONS SOUTHEAST NORTH DAKOTA *****

CITY           SKY/WX    TMP DP  RH WIND       PRES   REMARKS
COOPERSTOWN    FAIR      41  39  93 E5        30.21S
VALLEY CITY    FAIR      43  45 100 CALM      30.21S
OAKES          NOT AVBL
GWINNER        CLEAR     45  39  81 MISG      30.20S
SHEYENNE NWR     N/A     41  36  81 CALM      29.95S
BUFFALO        NOT AVBL
WYNDMERE       NOT AVBL
 ***** THE ABOVE OBSERVATIONS ARE NON NWS ARE NOT QUALITY
       CONTROLLED AND MAY MIS-REPORT RAIN FOR SNOW...
$$

  *****  WEATHER ACROSS NORTHERN MINNESOTA  *****

CITY           SKY/WX    TMP DP  RH WIND       PRES   REMARKS
FLAG ISLAND    MOCLDY    37  25  60 N3        30.26R
WARROAD        CLOUDY    37  28  70 NE7       30.25S
ROSEAU         FAIR      39  30  70 E7        30.24S
HALLOCK        FAIR      37  34  87 E6        30.22S
THF RVR FALLS  FAIR      45  32  60 NE10      30.23R
HALSTAD          N/A     41  39  94 N6          N/A
FOSSTON        FAIR      36  28  75 CALM      30.22R
BAUDETTE       FAIR      36  28  73 CALM      30.25R
WASKISH        FAIR      41  30  65 NE3       30.24R
CROOKSTON      FAIR      46  36  66 NE6       30.22S
$$
  *****  WEATHER ACROSS CENTRAL AND WEST MINNESOTA  *****

CITY           SKY/WX    TMP DP  RH WIND       PRES   REMARKS
BEMIDJI        FAIR      39  28  65 CALM      30.21S
PARK RAPIDS    FAIR      48  26  42 NE3       30.19R
WADENA         FAIR      48  30  49 E5        30.20R
DETROIT LAKES  FAIR      46  34  61 NE5       30.20S
MOORHEAD       FAIR      46  39  76 N5        30.21S
FERGUS FALLS   FAIR      48  37  66 NE5       30.23R
ELBOW LAKE     FAIR      44  40  83 CALM      30.20R
MORRIS MN      FAIR      50  39  66 NW5       30.19R
STAPLES        FAIR      48  28  46 CALM      30.21R
WHEATON        FAIR      46  37  71 N3        30.21S
$$
  *****  WEATHER ELSEWHERE ACROSS MINNESOTA  *****

CITY           SKY/WX    TMP DP  RH WIND       PRES   REMARKS
DULUTH         FAIR      39  28  64 E6        30.23R
INTRNTL FALLS  FAIR      40  25  55 NE6       30.25R
ELY            FAIR      39  25  56 CALM      30.25R
CLOQUET        FAIR      37  27  65 CALM      30.23R
BRAINERD       FAIR      43  29  57 CALM      30.21R
HIBBING        FAIR      38  26  62 NE3       30.22R
ALEXANDRIA     FAIR      50  33  52 CALM      30.20R
SAINT CLOUD    FAIR      42  30  62 CALM      30.19R
MINNEAPOLIS    MOCLDY    53  30  41 VRB3      30.19R
$$

  *****  WEATHER ACROSS SOUTH DAKOTA  *****

CITY           SKY/WX    TMP DP  RH WIND       PRES   REMARKS
SIOUX FALLS    CLOUDY    45  37  73 NE6       30.15R
BROOKINGS      FAIR      49  38  65 CALM      30.17R
WATERTOWN      FAIR      47  37  68 CALM      30.18R
HURON          FAIR      49  39  68 E5        30.16R
SISSETON         N/A     46  39  76 NW3       30.19R
ABERDEEN       FAIR      45  34  65 E9        30.18R
MITCHELL       FAIR      50  36  58 E5        30.15S
PIERRE         CLOUDY    47  44  90 W9        30.16R
MOBRIDGE       CLOUDY    50  36  58 SE5       30.14R
RAPID CITY     LGT RAIN  43  41  93 SE12      30.13R
$$

  *****  SOME WEATHER IN NEARBY STATES *****

CITY           SKY/WX    TMP DP  RH WIND       PRES   REMARKS
GLASGOW MT     FAIR      44  29  55 S8        30.04R
GREAT FALLS MT FAIR      42  22  44 SW10      30.06R
CHEYENNE WY    CLOUDY    35  34  96 N12       30.07R
SCOTTSBLUFF NE LGT RAIN  41  38  89 E9        30.11R
OMAHA NE       CLOUDY    50  41  71 NE15      30.08F
DES MOINES IA  CLOUDY    51  43  74 E8        30.14R
DAVENPORT IA   FAIR      41  38  89 S3        30.18S
CHICAGO IL     CLOUDY    40  35  83 NE9       30.21R
EAU CLAIRE WI  FAIR      43  29  57 CALM      30.19R
LA CROSSE WI   FAIR      46  38  73 CALM      30.19R
$$

  *****  SOME NATIONAL WEATHER *****

CITY           SKY/WX    TMP DP  RH WIND       PRES   REMARKS
LA GUARDIA NY  LGT RAIN  43  40  89 NE8       29.93F FOG
RALEIGH NC     FAIR      63  52  67 CALM      29.96R
ATLANTA GA     FAIR      69  58  67 W5        30.01R
NEW ORLEANS LA FAIR      72  67  84 SE9       29.95S
OKLAHOMA CITY  TSTM      56  54  93 VRB3G17   29.77R VSB 3/4
ALBUQUERQUE NM MOCLDY    45  36  70 W10       29.80F
SALT LAKE CITY FAIR      48  33  56 NW10      30.19R
LOS ANGELES CA FAIR      63  53  70 CALM      29.95S
BOISE ID       FAIR      49  30  48 N3        30.25S
SEATTLE WA     CLOUDY    49  45  86 S10       30.18S
$$

*** WEATHER ACROSS MANITOBA...SASKATCHEWAN AND ONTARIO ***
                ***ONTARIO***

CITY           SKY/WX    TMP DP  RH WIND       PRES   REMARKS
GERALDTON      PTCLDY    27  18  69 NE3       30.33R
THUNDER BAY    CLEAR     34  21  60 N3        30.34R
SIOUX LOOKOUT  CLEAR     30  18  59 E5        30.31R
TORONTO        CLEAR     37  30  75 N9        30.16R
BIG TROUT LK   CLEAR     21  12  68 E3        30.40S
PICKLE LAKE    NOT AVBL
DRYDEN         CLEAR     30  19  64 NE6       30.28S WCI  24
KENORA         PTCLDY    36  19  51 E7        30.27R
$$
                *** MANITOBA***

CITY           SKY/WX    TMP DP  RH WIND       PRES   REMARKS
BRANDON        CLOUDY    32  28  86 E14       30.19R WCI  22
DAUPHIN        LGT SNOW  30  30 100 E9        30.23R VSB 3/4 WCI  22
ISLAND LAKE    PTCLDY    25  16  68 E3        30.35R
PILOT MOUND      N/A     34  30  86 E13         N/A  WCI  25
THE PAS        CLOUDY    32  19  59 SE14      30.20F WCI  22
THOMPSON       PTCLDY    23  12  63 VRB2      30.31S
WINNIPEG       CLOUDY    36  27  69 NE7       30.24S
LYNN LAKE      PTCLDY    23  14  68 SE7       30.19S WCI  15
CHURCHILL      MOCLDY     9   3  78 S12       30.43F WCI  -6
GILLAM         CLEAR     16   7  67 E3        30.40R
$$
                ***SASKATCHEWAN***

CITY           SKY/WX    TMP DP  RH WIND       PRES   REMARKS
ESTEVAN        FOG       36  36 100 E7        30.11S VSB 1/4
KINDERSLEY     MOCLDY    43  32  65 S9        29.88R
LLOYDMINSTER   CLOUDY    36  36 100 E10       29.89F FOG
PRINCE ALBERT  CLOUDY    36  32  87 E12       30.04S
REGINA         CLOUDY    36  36 100 SE18G25   30.05S FOG
YORKTON        CLOUDY    34  30  86 SE10      30.13S



USA.gov is the U.S. government's official web portal to all federal, state and local government web resources and services.